Regional Weather Roundup
Issued by NWS

Home | Current Version | Previous Version | Text Only | Print | Product List | Glossary On
Versions: 1 2 3 4 5 6 7 8 9 10 11 12 13 14 15 16 17 18 19 20 21 22 23 24 25 26 27 28 29 30 31 32 33 34 35 36 37 38 39 40 41 42 43 44 45 46 47 48 49 50
000
ASUS43 KOAX 300710
RWRNE

WEATHER ROUNDUP FOR NEBRASKA
NATIONAL WEATHER SERVICE OMAHA NE
200 AM CDT SAT JUL 30 2016

NOTES: SATELLITE DATA IS BEING USED TO AUGMENT CLOUD COVER ABOVE
       12000 FEET.
       "FAIR" INDICATES FEW OR NO CLOUDS BELOW 12,000 FEET WITH NO
       SIGNIFICANT WEATHER AND/OR OBSTRUCTIONS TO VISIBILITY.

  * THESE STATIONS DO NOT REPORT WEATHER SUCH AS RAIN...SNOW OR FOG.

NEZ001>004-019>022-054>056-300800-
NEBRASKA PANHANDLE

CITY           SKY/WX    TMP DP  RH WIND       PRES   REMARKS
SCOTTSBLUFF    CLOUDY    62  57  83 S3        30.05F
ALLIANCE       PTCLDY    58  56  93 CALM      30.05F
CHADRON        CLEAR     59  56  89 W3        30.01F
KIMBALL        CLEAR     62  59  91 CALM      30.14F
SIDNEY         CLOUDY    62  58  86 SW10      30.10F
$$

NEZ057>060-069>072-079>082-300800-
SOUTHWEST NEBRASKA

CITY           SKY/WX    TMP DP  RH WIND       PRES   REMARKS
NORTH PLATTE   CLOUDY    67  63  87 SE7       30.05S
IMPERIAL       CLOUDY    65  61  87 CALM      30.06R
LEXINGTON      MOCLDY    67  64  87 S7        30.05S
MCCOOK         PTCLDY    68  63  84 E5        30.05R
OGALLALA       CLOUDY    66  63  88 SE3       30.05F
$$

NEZ005>010-023>029-035>040-094-300800-
NORTH CENTRAL NEBRASKA

CITY           SKY/WX    TMP DP  RH WIND       PRES   REMARKS
VALENTINE      MOCLDY    66  61  84 S6        30.03S
AINSWORTH      CLOUDY    67  60  80 SE12      30.04F
BROKEN BOW     PTCLDY    63  62  97 S3        30.05F
O`NEILL        PTCLDY    64  58  80 SE5       30.06S
ORD            PTCLDY    62  59  90 E3        30.03F
THEDFORD       CLEAR     65  62  91 S6        30.06F
$$

NEZ041-046>049-061>064-073>077-083>087-300800-
SOUTH CENTRAL NEBRASKA

CITY           SKY/WX    TMP DP  RH WIND       PRES   REMARKS
GRAND ISLAND   MOCLDY    65  59  81 SE3       30.05F
AURORA         PTCLDY    62  61  96 E3        30.05S
HASTINGS       MOCLDY    68  59  73 SE9       30.05F
HEBRON         PTCLDY    63  60  92 CALM      30.03F
HOLDREGE       MOCLDY    65  62  90 SE7       30.05S
KEARNEY *      MOCLDY    64  63  94 SE6       30.06R
YORK           PTCLDY    64  59  82 SE5       30.04F
$$

NEZ011>018-030>034-042>045-300800-
NORTHEAST NEBRASKA

CITY           SKY/WX    TMP DP  RH WIND       PRES   REMARKS
NORFOLK        CLOUDY    62  58  86 CALM      30.05S
ALBION         CLOUDY    61  58  90 E3        30.05F
BLAIR          MOCLDY    65  61  87 CALM      30.03F
FREMONT        PTCLDY    66  60  80 CALM      30.04F
TEKAMAH        PTCLDY    61  58  90 W3        30.03S
WAYNE          PTCLDY    60  59  97 CALM      30.06S
$$

NEZ050>053-065>068-078-088>093-300800-
SOUTHEAST NEBRASKA

CITY           SKY/WX    TMP DP  RH WIND       PRES   REMARKS
LINCOLN        CLOUDY    68  62  81 SE3       30.04F
OMAHA EPPLEY   MOCLDY    66  61  84 CALM      30.03F
BEATRICE       CLEAR     65  61  88 E3        30.03F
FALLS CITY     CLEAR     65  63  93 CALM      30.03S
NEBRASKA CITY  PTCLDY    64  64 100 CALM      30.03F
PLATTSMOUTH    CLOUDY    63  62  94 CALM      30.03F
$$

NEZ044-045-051>053-067-300800-
OMAHA AREA

CITY           SKY/WX    TMP DP  RH WIND       PRES   REMARKS
OMAHA EPPLEY   MOCLDY    66  61  84 CALM      30.03F
BLAIR          MOCLDY    65  61  87 CALM      30.03F
FREMONT        PTCLDY    66  60  80 CALM      30.04F
MILLARD        CLOUDY    65  63  91 CALM      30.02F
OFFUTT AFB     MOCLDY    62  62 100 CALM      30.02F
PLATTSMOUTH    CLOUDY    63  62  94 CALM      30.03F
WAHOO          FAIR      63  61  92 CALM      30.04F
$$



USA.gov is the U.S. government's official web portal to all federal, state and local government web resources and services.